Regional Weather Roundup
Issued by NWS Charleston, SC

Current Version | Previous Version | Graphics & Text | Print | Product List | Glossary On
Versions: 1 2 3 4 5 6 7 8 9 10 11 12 13 14 15 16 17 18 19 20 21 22 23 24 25 26 27 28 29 30 31 32 33 34 35 36 37 38 39 40 41 42 43 44 45 46 47 48 49 50
000
ASUS42 KCHS 130428
RWRCHS

REGIONAL WEATHER ROUNDUP
NATIONAL WEATHER SERVICE CHARLESTON SC
1100 PM EST FRI FEB 12 2016

NOTE: "FAIR" INDICATES FEW OR NO CLOUDS BELOW 12,000 FEET WITH NO
SIGNIFICANT WEATHER AND/OR OBSTRUCTIONS TO VISIBILITY.

NOT ALL STATIONS ARE QUALITY CONTROLLED BY THE NATIONAL
WEATHER SERVICE. USE DATA WITH CAUTION...ESPECIALLY
DEWPOINT OBSERVATIONS.

SCZ027-030-031-034>040-042>050-130500-
...SOUTHEAST SOUTH CAROLINA...

CITY           SKY/WX    TMP DP  RH WIND       PRES   REMARKS
N CHARLESTON   PTCLDY    41  35  79 CALM      30.05S
WATERFRONT PRK   N/A     46  44  93 VRB2      29.90S
MOUNT PLEASANT FAIR      39  39 100 CALM      30.05S
JOHNS ISLAND   FAIR      41  39  93 CALM      30.06R
PINOPOLIS        N/A     41  34  75 MISG      29.98R
MONCKS CORNER  FAIR      34  32  93 CALM      30.05S
SUMMERVILLE    FAIR      37  37 100 CALM      30.07R
BEAUFORT MCAS  CLEAR     44  42  93 NW3       30.07R FOG
BEAUFORT ARPT  FAIR      45  45 100 NW3       30.07R FOG
HILTON HEAD IS CLEAR     46  46 100 CALM      30.08R FOG
WALTERBORO     CLEAR     43  41  93 CALM      30.07S
ALLENDALE      FAIR      41  41 100 CALM      30.07R FOG

...SOUTHERN MIDLANDS AND PEE DEE...

CITY           SKY/WX    TMP DP  RH WIND       PRES   REMARKS
GEORGETOWN     MOCLDY    34  32  93 CALM      30.06S
KINGSTREE      FAIR      32  28  86 CALM      30.06R
ORANGEBURG     CLEAR     38  35  89 CALM      30.07R
BARNWELL       FAIR      45  41  87 NW6       30.09R
AIKEN          FAIR      41  32  70 NW8       30.11S
MANNING        FAIR      30  30 100 CALM      30.06S
COLUMBIA       CLEAR     38  31  76 N3        30.07R
SUMTER         CLEAR     35  28  75 N9        30.05R WCI  28
FLORENCE       CLEAR     29  27  92 N6        30.08R WCI  23
MYRTLE BEACH   CLEAR     36  25  64 N8        30.06S WCI  29
N MYRTLE BEACH CLEAR     30  27  88 N3        30.04F

$$

GAZ063-065-086>088-099>101-113>116-118-119-134>141-150-130500-
...SOUTHEAST GEORGIA...

CITY           SKY/WX    TMP DP  RH WIND       PRES   REMARKS
SAVANNAH ARPT  CLEAR     54  46  74 W6        30.07R
HUNTER AAF     CLEAR     55  47  76 W10       30.05R
FORT STEWART   CLEAR     55  47  76 W5        30.06R
STATESBORO     CLEAR     47  47 100 CALM      30.09R FOG
SYLVANIA       CLEAR     42  42 100 NW3       30.09S
CLAXTON        FAIR      54  47  78 SW5       30.09R

...CSRA...CENTRAL AND FAR SOUTHEAST GEORGIA...

CITY           SKY/WX    TMP DP  RH WIND       PRES   REMARKS
THOMSON        CLEAR     45  36  70 NW7       30.16R
AUGUSTA-BUSH   CLEAR     48  34  58 NW14      30.10R
AUGUSTA-DANIEL CLEAR     48  33  56 NW10      30.10R
SWAINSBORO     FAIR      43  41  93 W3        30.11R
VIDALIA        CLEAR     54  43  66 NW5       30.10S
EASTMAN        FAIR      55  41  60 NW3       30.15R
HAZLEHURST     FAIR      59  42  52 W5        30.10S
ALMA           CLEAR     58  45  62 W7        30.10S
WAYCROSS       PTCLDY    61  52  72 W6        30.12R
JESUP          FAIR      63  50  63 NW5       30.10R
BAXLEY         FAIR      59  43  55 W7        30.10S
BRUNSWICK      CLEAR     63  50  63 W7        30.10S
SAINT SIMONS   CLEAR     57  53  86 SW7       30.09R

$$

SCZ027-028-034-036>038-045-046-048>050-GAZ119-141-130500-
...LAKE AND SUPPLEMENTAL COASTAL OBSERVATIONS...

STATION/POSITION TIME  TEMP    WIND        PRES    WAVE   SWELL
                       AIR SEA DIR/SP/G            HT/PER HT/PER/DIR
                 (UTC) (F)     (DEG/KT/KT) (MB)    (FT/S) (FT/S/D)
WINYAH BAY       0300   39      10/  3     1016.0S
LAKE MURRAY      0300   41      CALM  /  3 1017.3R
ACE BASIN NERRS  0345   44        CALM     1018.0R
FORT PULASKI     0400   56 51  310/  6/  7 1018.3R
SAPELO ISLAND    0400   53     210/  7     1019.0R

$$

ANZ835-935-AMZ111-154-330-350-352-354-370-450-454-472-130500-
...C-MAN AND BUOY OBSERVATIONS...

STATION/POSITION TIME  TEMP    WIND        PRES    WAVE   SWELL
                       AIR SEA DIR/SP/G            HT/PER HT/PER/DIR
                 (UTC) (F)     (DEG/KT/KT) (MB)    (FT/S) (FT/S/D)
BUOY 41004       0350   53 68  350/  8/ 10 1017.0F   4/ 7   3/ 7
BUOY 41008       0350   57 53  230/  8/ 10 1018.3R   3/ 5   2/160/ 5
FOLLY BEACH CMAN 0400   45     330/  3/  4 1017.8R
CAPERS NEARSHORE 0308   47      40/  6/ 10 1017.3R
FRIPP NEARSHORE  0300   51      80/  4/  6 1017.4R


STATION/POSITION TIME  TEMP    WIND        PRES    WAVE   SWELL
                       AIR SEA DIR/SP/G            HT/PER HT/PER/DIR
                 (UTC) (F)     (DEG/KT/KT) (MB)    (FT/S) (FT/S/D)
5E ST. MARYS GA  0321      56                N/A     2/ 4
FRYING PAN BUOY  0400   44 52  330/ 14/ 16 1017.4F
BUOY 41025       0350   42 71  320/ 17/ 23 1015.4R   4/ 8   3/ 70/ 8
CAPE LOOKOUT NC  NOT AVBL
BUOY 41002       0350   62 68  260/ 27/ 35   N/A    15/10   8/250/10
BUOY 41010       0320   72 72              1020.5F
ST AUGUSTINE FL  0400   61 58  240/  8/ 12 1021.6R


$$



USA.gov is the U.S. government's official web portal to all federal, state and local government web resources and services.